Regional Weather Roundup
Issued by NWS

Home | Current Version | Previous Version | Graphics & Text | Print | Product List | Glossary On
Versions: 1 2 3 4 5 6 7 8 9 10 11 12 13 14 15 16 17 18 19 20 21 22 23 24 25 26 27
000
ASUS45 KBOU 230106
RWRCO

WEATHER ROUNDUP FOR COLORADO
NATIONAL WEATHER SERVICE DENVER/BOULDER CO
700 PM MDT TUE APR 22 2014

NOTE: "FAIR" INDICATES FEW OR NO CLOUDS BELOW 12000 FEET WITH NO
SIGNIFICANT WEATHER AND/OR OBSTRUCTIONS TO VISIBILITY.

COZ001>005-013-030-031-230200-
...NORTHWEST COLORADO...

CITY           SKY/WX    TMP DP  RH WIND       PRES   REMARKS
CRAIG          CLOUDY    61  29  29 SW6       29.73F
HAYDEN         CLOUDY    61  27  27 S6        29.79F
MEEKER         CLOUDY    62  30  29 S5        29.74F
MOUNT WERNER   CLOUDY    46  23  39 SE21G33   30.00
STEAMBOAT SPGS CLOUDY    59  28  30 SE7       29.78F
WALDEN         CLOUDY    54  28  37 S14G23    29.86F
$$

COZ006>008-011-230200-
...WEST CENTRAL VALLEYS...

CITY           SKY/WX    TMP DP  RH WIND       PRES   REMARKS
GRAND JUNCTION CLOUDY    67  30  25 N6        29.65F
MONTROSE       MOCLDY    69  32  25 S9        29.77F
EAGLE          CLOUDY    64  28  25 S10G20    29.82F
RIFLE          CLOUDY    71  26  18 S13G26    29.70F
DELTA          NOT AVBL
NUCLA          NOT AVBL
$$

COZ017>023-064>068-230200-
...SOUTHWEST COLORADO...

CITY           SKY/WX    TMP DP  RH WIND       PRES   REMARKS
DURANGO        CLOUDY    66  25  21 S5        29.87F
CORTEZ         PTSUNNY   71  25  17 SW20G29   29.80F
PAGOSA SPRINGS CLOUDY    63  23  21 W13G22    29.96S
TELLURIDE      CLOUDY    54  30  40 SE9       29.97F
WOLF CREEK PAS CLOUDY    37  23  56 SW33G53   30.12F
$$

COZ009-010-012-014-032>034-037-058>063-230200-
...CENTRAL COLORADO...

CITY           SKY/WX    TMP DP  RH WIND       PRES   REMARKS
ASPEN          CLOUDY    53  33  46 SE18G25   29.90S
BUENA VISTA    CLOUDY    56  30  36 W6        29.92F
COPPER MTN     LGT SNOW  37  32  81 S22G31    30.12S VSB 1
BERTHOUD PASS  FAIR      34  27  75 CALM      30.14F
COTTONWOOD PAS CLOUDY    52  28  40 W10       30.02F
GUNNISON       CLOUDY    55  32  41 SE6       29.96F
KREMMLING      CLOUDY    55  32  41 W5        29.86S
LEADVILLE      CLOUDY    45  28  51 SW8       30.01S
MONARCH PASS   CLOUDY    37  28  70 SW38      30.21F
SALIDA         CLOUDY    63  29  28 S9G22     29.97F
SUNLIGHT       CLOUDY    43  30  61 CALM      30.03F
WILKERSON PASS MOCLDY    36  32  87 SW12G18   30.09F
$$

COZ069>075-230200-
...SAN LUIS VALLEY/SANGRE DE CRISTO MOUNTAINS...

CITY           SKY/WX    TMP DP  RH WIND       PRES   REMARKS
ALAMOSA        MOCLDY    63  29  27 S21G26    29.95F
LA VETA PASS   MOCLDY    46  27  46 SW13G33   30.07R
SAGUACHE       CLOUDY    57  32  38 W9        29.96F
$$

COZ035-036-038>040-230200-
...NORTHERN COLORADO FRONT RANGE...

CITY           SKY/WX    TMP DP  RH WIND       PRES   REMARKS
DENVER INTL AP CLOUDY    69  34  27 W7        29.73F
DMNS CITY PARK   N/A     69  35  28 NE3       29.72F
AURORA         MOCLDY    68  36  30 NW3       29.75F
FRONT RANGE AP MOCLDY    72  36  26 W6        29.75F
ERIE MUNI ARPT CLOUDY    67  35  30 CALM      29.71F
BOULDER MUN AP CLOUDY    68  34  28 SW5       29.70F
CENTENNIAL     CLOUDY    69  31  24 SW12      29.76F
BROOMFIELD     MOCLDY    66  36  32 VRB6      29.74F
FORT COLLINS   CLOUDY    70  36  28 CALM      29.70F
LONGMONT       NOT AVBL
$$

COZ041-046-047-076>085-087-088-230200-
...PIKES PEAK/PALMER DIVIDE AND SOUTHERN FOOTHILLS...

CITY           SKY/WX    TMP DP  RH WIND       PRES   REMARKS
COLO. SPRINGS  MOCLDY    66  42  41 NE9       29.80F
A. F. ACADEMY  MOCLDY    67  33  27 S13       29.81F
ELLICOTT       NOT AVBL
FALCON         MOCLDY    61  35  38 SE5       29.85F
FORT CARSON    MOCLDY    71  30  22 S10       29.78F
LIMON          MOCLDY    68  37  32 S14       29.77F
MONUMENT HILL  CLOUDY    59  34  38 S12       29.85F
TRINIDAD       PTCLDY    69  39  33 S33G40    29.82F
$$

COZ042>045-048>051-090-091-230200-
...NORTHEAST COLORADO...

CITY           SKY/WX    TMP DP  RH WIND       PRES   REMARKS
GREELEY ARPT   CLOUDY    70  34  26 S7        29.68F
AKRON          CLOUDY    71  35  26 S8G26     29.70F
BURLINGTON     MOCLDY    73  39  29 SW25      29.74S
WRAY           PTCLDY    78  41  26 SE21G32   29.67F
STERLING       NOT AVBL
HOLYOKE        NOT AVBL
FORT MORGAN    NOT AVBL
$$

COZ086-089-092>099-230200-
...SOUTHEAST COLORADO...

CITY           SKY/WX    TMP DP  RH WIND       PRES   REMARKS
PUEBLO         MOCLDY    73  38  27 S15       29.74F
LA JUNTA       MOCLDY    73  44  35 S16       29.74F
LAMAR          MOCLDY    68  53  58 S16G22    29.75F
SPRINGFIELD      N/A     65  50  58 S5        29.82F
$$



USA.gov is the U.S. government's official web portal to all federal, state and local government web resources and services.